Year,Month,Day,Hour,Minute,Value (Times are PST for temperature in C)
2009,03,07,00,00,5.40
2009,03,07,00,01,5.40
2009,03,07,00,02,5.40
2009,03,07,00,03,5.40
2009,03,07,00,04,5.40
2009,03,07,00,05,5.40
2009,03,07,00,06,5.40
2009,03,07,00,07,5.40
2009,03,07,00,08,5.40
2009,03,07,00,09,5.40
2009,03,07,00,10,5.50
2009,03,07,00,11,5.40
2009,03,07,00,12,5.50
2009,03,07,00,13,5.50
2009,03,07,00,14,5.50
2009,03,07,00,15,5.50
2009,03,07,00,16,5.50
2009,03,07,00,17,5.50
2009,03,07,00,18,5.50
2009,03,07,00,19,5.50
2009,03,07,00,20,5.60
2009,03,07,00,21,5.60
2009,03,07,00,22,5.60
2009,03,07,00,23,5.60
2009,03,07,00,24,5.60
2009,03,07,00,25,5.60
2009,03,07,00,26,5.60
2009,03,07,00,27,5.60
2009,03,07,00,28,5.60
2009,03,07,00,29,5.60
2009,03,07,00,30,5.60
2009,03,07,00,31,5.60
2009,03,07,00,32,5.60
2009,03,07,00,33,5.60
2009,03,07,00,34,5.60
2009,03,07,00,35,5.60
2009,03,07,00,36,5.60
2009,03,07,00,37,5.60
2009,03,07,00,38,5.60
2009,03,07,00,39,5.60
2009,03,07,00,40,5.60
2009,03,07,00,41,5.60
2009,03,07,00,42,5.60
2009,03,07,00,43,5.60
2009,03,07,00,44,5.60
2009,03,07,00,45,5.60
2009,03,07,00,46,5.60
2009,03,07,00,47,5.60
2009,03,07,00,48,5.60
2009,03,07,00,49,5.60
2009,03,07,00,50,5.60
2009,03,07,00,51,5.60
2009,03,07,00,52,5.60
2009,03,07,00,53,5.60
2009,03,07,00,54,5.60
2009,03,07,00,55,5.60
2009,03,07,00,56,5.60
2009,03,07,00,57,5.60
2009,03,07,00,58,5.60
2009,03,07,00,59,5.60
2009,03,07,01,00,5.60
2009,03,07,01,01,5.60
2009,03,07,01,02,5.60
2009,03,07,01,03,5.60
2009,03,07,01,04,5.60
2009,03,07,01,05,5.60
2009,03,07,01,06,5.60
2009,03,07,01,07,5.60
2009,03,07,01,08,5.60
2009,03,07,01,09,5.60
2009,03,07,01,10,5.60
2009,03,07,01,11,5.60
2009,03,07,01,12,5.60
2009,03,07,01,13,5.60
2009,03,07,01,14,5.60
2009,03,07,01,15,5.60
2009,03,07,01,16,5.60
2009,03,07,01,17,5.60
2009,03,07,01,18,5.60
2009,03,07,01,19,5.60
2009,03,07,01,20,5.60
2009,03,07,01,21,5.60
2009,03,07,01,22,5.60
2009,03,07,01,23,5.60
2009,03,07,01,24,5.60
2009,03,07,01,25,5.60
2009,03,07,01,26,5.60
2009,03,07,01,27,5.60
2009,03,07,01,28,5.60
2009,03,07,01,29,5.60
2009,03,07,01,30,5.60
2009,03,07,01,31,5.60
2009,03,07,01,32,5.60
2009,03,07,01,33,5.60
2009,03,07,01,34,5.60
2009,03,07,01,35,5.60
2009,03,07,01,36,5.60
2009,03,07,01,37,5.60
2009,03,07,01,38,5.60
2009,03,07,01,39,5.60
2009,03,07,01,40,5.50
2009,03,07,01,41,5.50
2009,03,07,01,42,5.50
2009,03,07,01,43,5.50
2009,03,07,01,44,5.50
2009,03,07,01,45,5.50
2009,03,07,01,46,5.50
2009,03,07,01,47,5.50
2009,03,07,01,48,5.50
2009,03,07,01,49,5.50
2009,03,07,01,50,5.50
2009,03,07,01,51,5.50
2009,03,07,01,52,5.50
2009,03,07,01,53,5.50
2009,03,07,01,54,5.50
2009,03,07,01,55,5.50
2009,03,07,01,56,5.50
2009,03,07,01,57,5.50
2009,03,07,01,58,5.50
2009,03,07,01,59,5.50
2009,03,07,02,00,5.50
2009,03,07,02,01,5.50
2009,03,07,02,02,5.50
2009,03,07,02,03,5.50
2009,03,07,02,04,5.50
2009,03,07,02,05,5.50
2009,03,07,02,06,5.50
2009,03,07,02,07,5.50
2009,03,07,02,08,5.50
2009,03,07,02,09,5.50
2009,03,07,02,10,5.50
2009,03,07,02,11,5.50
2009,03,07,02,12,5.50
2009,03,07,02,13,5.40
2009,03,07,02,14,5.40
2009,03,07,02,15,5.40
2009,03,07,02,16,5.40
2009,03,07,02,17,5.40
2009,03,07,02,18,5.40
2009,03,07,02,19,5.40
2009,03,07,02,20,5.30
2009,03,07,02,21,5.30
2009,03,07,02,22,5.30
2009,03,07,02,23,5.20
2009,03,07,02,24,5.20
2009,03,07,02,25,5.10
2009,03,07,02,26,5.10
2009,03,07,02,27,5.10
2009,03,07,02,28,5.00
2009,03,07,02,29,5.00
2009,03,07,02,30,4.90
2009,03,07,02,31,4.90
2009,03,07,02,32,4.90
2009,03,07,02,33,4.90
2009,03,07,02,34,4.90
2009,03,07,02,35,4.90
2009,03,07,02,36,4.80
2009,03,07,02,37,4.80
2009,03,07,02,38,4.80
2009,03,07,02,39,4.80
2009,03,07,02,40,4.80
2009,03,07,02,41,4.80
2009,03,07,02,42,4.80
2009,03,07,02,43,4.80
2009,03,07,02,44,4.80
2009,03,07,02,45,4.80
2009,03,07,02,46,4.80
2009,03,07,02,47,4.70
2009,03,07,02,48,4.70
2009,03,07,02,49,4.70
2009,03,07,02,50,4.70
2009,03,07,02,51,4.70
2009,03,07,02,52,4.70
2009,03,07,02,53,4.70
2009,03,07,02,54,4.70
2009,03,07,02,55,4.70
2009,03,07,02,56,4.70
2009,03,07,02,57,4.70
2009,03,07,02,58,4.70
2009,03,07,02,59,4.70
2009,03,07,03,00,4.60
2009,03,07,03,01,4.60
2009,03,07,03,02,4.60
2009,03,07,03,03,4.60
2009,03,07,03,04,4.60
2009,03,07,03,05,4.60
2009,03,07,03,06,4.60
2009,03,07,03,07,4.60
2009,03,07,03,08,4.50
2009,03,07,03,09,4.50
2009,03,07,03,10,4.40
2009,03,07,03,11,4.40
2009,03,07,03,12,4.40
2009,03,07,03,13,4.30
2009,03,07,03,14,4.30
2009,03,07,03,15,4.30
2009,03,07,03,16,4.30
2009,03,07,03,17,4.30
2009,03,07,03,18,4.30
2009,03,07,03,19,4.30
2009,03,07,03,20,4.30
2009,03,07,03,21,4.30
2009,03,07,03,22,4.40
2009,03,07,03,23,4.40
2009,03,07,03,24,4.50
2009,03,07,03,25,4.50
2009,03,07,03,26,4.50
2009,03,07,03,27,4.60
2009,03,07,03,28,4.60
2009,03,07,03,29,4.60
2009,03,07,03,30,4.70
2009,03,07,03,31,4.70
2009,03,07,03,32,4.70
2009,03,07,03,33,4.70
2009,03,07,03,34,4.80
2009,03,07,03,35,4.80
2009,03,07,03,36,4.80
2009,03,07,03,37,4.80
2009,03,07,03,38,4.80
2009,03,07,03,39,4.80
2009,03,07,03,40,4.80
2009,03,07,03,41,4.80
2009,03,07,03,42,4.80
2009,03,07,03,43,4.80
2009,03,07,03,44,4.80
2009,03,07,03,45,4.80
2009,03,07,03,46,4.80
2009,03,07,03,47,4.80
2009,03,07,03,48,4.80
2009,03,07,03,49,4.80
2009,03,07,03,50,4.90
2009,03,07,03,51,5.00
2009,03,07,03,52,5.00
2009,03,07,03,53,5.10
2009,03,07,03,54,5.10
2009,03,07,03,55,5.10
2009,03,07,03,56,5.10
2009,03,07,03,57,5.10
2009,03,07,03,58,5.10
2009,03,07,03,59,5.10
2009,03,07,04,00,5.10
2009,03,07,04,01,5.10
2009,03,07,04,02,5.10
2009,03,07,04,03,5.10
2009,03,07,04,04,5.10
2009,03,07,04,05,5.10
2009,03,07,04,06,5.10
2009,03,07,04,07,5.10
2009,03,07,04,08,5.10
2009,03,07,04,09,5.10
2009,03,07,04,10,5.10
2009,03,07,04,11,5.10
2009,03,07,04,12,5.00
2009,03,07,04,13,5.10
2009,03,07,04,14,5.10
2009,03,07,04,15,5.10
2009,03,07,04,16,5.10
2009,03,07,04,17,5.10
2009,03,07,04,18,5.10
2009,03,07,04,19,5.10
2009,03,07,04,20,5.20
2009,03,07,04,21,5.20
2009,03,07,04,22,5.20
2009,03,07,04,23,5.20
2009,03,07,04,24,5.20
2009,03,07,04,25,5.20
2009,03,07,04,26,5.20
2009,03,07,04,27,5.20
2009,03,07,04,28,5.20
2009,03,07,04,29,5.20
2009,03,07,04,30,5.20
2009,03,07,04,31,5.20
2009,03,07,04,32,5.20
2009,03,07,04,33,5.20
2009,03,07,04,34,5.20
2009,03,07,04,35,5.20
2009,03,07,04,36,5.20
2009,03,07,04,37,5.20
2009,03,07,04,38,5.20
2009,03,07,04,39,5.20
2009,03,07,04,40,5.20
2009,03,07,04,41,5.20
2009,03,07,04,42,5.20
2009,03,07,04,43,5.30
2009,03,07,04,44,5.30
2009,03,07,04,45,5.30
2009,03,07,04,46,5.30
2009,03,07,04,47,5.30
2009,03,07,04,48,5.40
2009,03,07,04,49,5.40
2009,03,07,04,50,5.40
2009,03,07,04,51,5.30
2009,03,07,04,52,5.20
2009,03,07,04,53,5.10
2009,03,07,04,54,4.90
2009,03,07,04,55,4.70
2009,03,07,04,56,4.50
2009,03,07,04,57,4.30
2009,03,07,04,58,4.20
2009,03,07,04,59,4.10
2009,03,07,05,00,4.00
2009,03,07,05,01,3.90
2009,03,07,05,02,3.80
2009,03,07,05,03,3.70
2009,03,07,05,04,3.70
2009,03,07,05,05,3.60
2009,03,07,05,06,3.60
2009,03,07,05,07,3.50
2009,03,07,05,08,3.50
2009,03,07,05,09,3.40
2009,03,07,05,10,3.40
2009,03,07,05,11,3.40
2009,03,07,05,12,3.40
2009,03,07,05,13,3.30
2009,03,07,05,14,3.30
2009,03,07,05,15,3.30
2009,03,07,05,16,3.30
2009,03,07,05,17,3.30
2009,03,07,05,18,3.30
2009,03,07,05,19,3.30
2009,03,07,05,20,3.30
2009,03,07,05,21,3.20
2009,03,07,05,22,3.30
2009,03,07,05,23,3.20
2009,03,07,05,24,3.20
2009,03,07,05,25,3.20
2009,03,07,05,26,3.20
2009,03,07,05,27,3.20
2009,03,07,05,28,3.20
2009,03,07,05,29,3.20
2009,03,07,05,30,3.20
2009,03,07,05,31,3.20
2009,03,07,05,32,3.20
2009,03,07,05,33,3.20
2009,03,07,05,34,3.20
2009,03,07,05,35,3.20
2009,03,07,05,36,3.20
2009,03,07,05,37,3.20
2009,03,07,05,38,3.20
2009,03,07,05,39,3.20
2009,03,07,05,40,3.20
2009,03,07,05,41,3.20
2009,03,07,05,42,3.20
2009,03,07,05,43,3.20
2009,03,07,05,44,3.30
2009,03,07,05,45,3.30
2009,03,07,05,46,3.30
2009,03,07,05,47,3.30
2009,03,07,05,48,3.30
2009,03,07,05,49,3.30
2009,03,07,05,50,3.30
2009,03,07,05,51,3.30
2009,03,07,05,52,3.30
2009,03,07,05,53,3.30
2009,03,07,05,54,3.30
2009,03,07,05,55,3.30
2009,03,07,05,56,3.30
2009,03,07,05,57,3.30
2009,03,07,05,58,3.30
2009,03,07,05,59,3.30
2009,03,07,06,00,3.30
2009,03,07,06,01,3.30
2009,03,07,06,02,3.30
2009,03,07,06,03,3.30
2009,03,07,06,04,3.30
2009,03,07,06,05,3.30
2009,03,07,06,06,3.30
2009,03,07,06,07,3.30
2009,03,07,06,08,3.40
2009,03,07,06,09,3.40
2009,03,07,06,10,3.40
2009,03,07,06,11,3.40
2009,03,07,06,12,3.40
2009,03,07,06,13,3.40
2009,03,07,06,14,3.50
2009,03,07,06,15,3.50
2009,03,07,06,16,3.50
2009,03,07,06,17,3.50
2009,03,07,06,18,3.50
2009,03,07,06,19,3.50
2009,03,07,06,20,3.50
2009,03,07,06,21,3.50
2009,03,07,06,22,3.60
2009,03,07,06,23,3.60
2009,03,07,06,24,3.60
2009,03,07,06,25,3.60
2009,03,07,06,26,3.60
2009,03,07,06,27,3.60
2009,03,07,06,28,3.60
2009,03,07,06,29,3.70
2009,03,07,06,30,3.70
2009,03,07,06,31,3.70
2009,03,07,06,32,3.70
2009,03,07,06,33,3.70
2009,03,07,06,34,3.70
2009,03,07,06,35,3.70
2009,03,07,06,36,3.70
2009,03,07,06,37,3.70
2009,03,07,06,38,3.70
2009,03,07,06,39,3.80
2009,03,07,06,40,3.80
2009,03,07,06,41,3.80
2009,03,07,06,42,3.80
2009,03,07,06,43,3.80
2009,03,07,06,44,3.80
2009,03,07,06,45,3.80
2009,03,07,06,46,3.80
2009,03,07,06,47,3.80
2009,03,07,06,48,3.80
2009,03,07,06,49,3.80
2009,03,07,06,50,3.80
2009,03,07,06,51,3.90
2009,03,07,06,52,3.90
2009,03,07,06,53,3.90
2009,03,07,06,54,3.90
2009,03,07,06,55,3.90
2009,03,07,06,56,3.90
2009,03,07,06,57,3.90
2009,03,07,06,58,3.90
2009,03,07,06,59,3.90
2009,03,07,07,00,3.90
2009,03,07,07,01,4.00
2009,03,07,07,02,4.00
2009,03,07,07,03,4.00
2009,03,07,07,04,4.00
2009,03,07,07,05,4.00
2009,03,07,07,06,4.00
2009,03,07,07,07,4.00
2009,03,07,07,08,4.00
2009,03,07,07,09,4.00
2009,03,07,07,10,4.00
2009,03,07,07,11,4.00
2009,03,07,07,12,4.00
2009,03,07,07,13,4.00
2009,03,07,07,14,4.00
2009,03,07,07,15,4.10
2009,03,07,07,16,4.10
2009,03,07,07,17,4.10
2009,03,07,07,18,4.10
2009,03,07,07,19,4.10
2009,03,07,07,20,4.10
2009,03,07,07,21,4.10
2009,03,07,07,22,4.00
2009,03,07,07,23,4.10
2009,03,07,07,24,4.10
2009,03,07,07,25,4.10
2009,03,07,07,26,4.10
2009,03,07,07,27,4.10
2009,03,07,07,28,4.10
2009,03,07,07,29,4.10
2009,03,07,07,30,4.00
2009,03,07,07,31,4.00
2009,03,07,07,32,4.00
2009,03,07,07,33,4.00
2009,03,07,07,34,4.00
2009,03,07,07,35,4.10
2009,03,07,07,36,4.10
2009,03,07,07,37,4.10
2009,03,07,07,38,4.10
2009,03,07,07,39,4.10
2009,03,07,07,40,4.00
2009,03,07,07,41,4.00
2009,03,07,07,42,4.00
2009,03,07,07,43,4.00
2009,03,07,07,44,4.00
2009,03,07,07,45,4.00
2009,03,07,07,46,3.90
2009,03,07,07,47,3.90
2009,03,07,07,48,3.90
2009,03,07,07,49,3.90
2009,03,07,07,50,3.90
2009,03,07,07,51,3.80
2009,03,07,07,52,3.80
2009,03,07,07,53,3.80
2009,03,07,07,54,3.80
2009,03,07,07,55,3.80
2009,03,07,07,56,3.70
2009,03,07,07,57,3.70
2009,03,07,07,58,3.70
2009,03,07,07,59,3.70
2009,03,07,08,00,3.70
2009,03,07,08,01,3.70
2009,03,07,08,02,3.60
2009,03,07,08,03,3.60
2009,03,07,08,04,3.60
2009,03,07,08,05,3.60
2009,03,07,08,06,3.50
2009,03,07,08,07,3.50
2009,03,07,08,08,3.50
2009,03,07,08,09,3.40
2009,03,07,08,10,3.40
2009,03,07,08,11,3.40
2009,03,07,08,12,3.40
2009,03,07,08,13,3.40
2009,03,07,08,14,3.40
2009,03,07,08,15,3.40
2009,03,07,08,16,3.40
2009,03,07,08,17,3.40
2009,03,07,08,18,3.40
2009,03,07,08,19,3.50
2009,03,07,08,20,3.50
2009,03,07,08,21,3.60
2009,03,07,08,22,3.60
2009,03,07,08,23,3.70
2009,03,07,08,24,3.70
2009,03,07,08,25,3.70
2009,03,07,08,26,3.80
2009,03,07,08,27,3.80
2009,03,07,08,28,3.90
2009,03,07,08,29,3.90
2009,03,07,08,30,3.90
2009,03,07,08,31,4.00
2009,03,07,08,32,4.00
2009,03,07,08,33,4.10
2009,03,07,08,34,4.10
2009,03,07,08,35,4.10
2009,03,07,08,36,4.20
2009,03,07,08,37,4.20
2009,03,07,08,38,4.30
2009,03,07,08,39,4.30
2009,03,07,08,40,4.30
2009,03,07,08,41,4.30
2009,03,07,08,42,4.40
2009,03,07,08,43,4.40
2009,03,07,08,44,4.40
2009,03,07,08,45,4.50
2009,03,07,08,46,4.50
2009,03,07,08,47,4.50
2009,03,07,08,48,4.50
2009,03,07,08,49,4.50
2009,03,07,08,50,4.50
2009,03,07,08,51,4.50
2009,03,07,08,52,4.60
2009,03,07,08,53,4.60
2009,03,07,08,54,4.60
2009,03,07,08,55,4.60
2009,03,07,08,56,4.60
2009,03,07,08,57,4.60
2009,03,07,08,58,4.60
2009,03,07,08,59,4.70
2009,03,07,09,00,4.70
2009,03,07,09,01,4.70
2009,03,07,09,02,4.70
2009,03,07,09,03,4.70
2009,03,07,09,04,4.70
2009,03,07,09,05,4.70
2009,03,07,09,06,4.70
2009,03,07,09,07,4.70
2009,03,07,09,08,4.70
2009,03,07,09,09,4.70
2009,03,07,09,10,4.70
2009,03,07,09,11,4.70
2009,03,07,09,12,4.80
2009,03,07,09,13,4.80
2009,03,07,09,14,4.80
2009,03,07,09,15,4.80
2009,03,07,09,16,4.90
2009,03,07,09,17,4.90
2009,03,07,09,18,4.80
2009,03,07,09,19,4.80
2009,03,07,09,20,4.80
2009,03,07,09,21,4.80
2009,03,07,09,22,4.80
2009,03,07,09,23,4.80
2009,03,07,09,24,4.80
2009,03,07,09,25,4.80
2009,03,07,09,26,4.80
2009,03,07,09,27,4.80
2009,03,07,09,28,4.70
2009,03,07,09,29,4.70
2009,03,07,09,30,4.70
2009,03,07,09,31,4.70
2009,03,07,09,32,4.70
2009,03,07,09,33,4.80
2009,03,07,09,34,4.80
2009,03,07,09,35,4.80
2009,03,07,09,36,4.80
2009,03,07,09,37,4.80
2009,03,07,09,38,4.80
2009,03,07,09,39,4.80
2009,03,07,09,40,4.80
2009,03,07,09,41,4.80
2009,03,07,09,42,4.80
2009,03,07,09,43,4.80
2009,03,07,09,44,4.90
2009,03,07,09,45,4.90
2009,03,07,09,46,4.90
2009,03,07,09,47,4.90
2009,03,07,09,48,5.00
2009,03,07,09,49,5.00
2009,03,07,09,50,5.10
2009,03,07,09,51,5.10
2009,03,07,09,52,5.20
2009,03,07,09,53,5.20
2009,03,07,09,54,5.20
2009,03,07,09,55,5.20
2009,03,07,09,56,5.30
2009,03,07,09,57,5.30
2009,03,07,09,58,5.30
2009,03,07,09,59,5.30
2009,03,07,10,00,5.40
2009,03,07,10,01,5.50
2009,03,07,10,02,5.60
2009,03,07,10,03,5.60
2009,03,07,10,04,5.70
2009,03,07,10,05,5.70
2009,03,07,10,06,5.80
2009,03,07,10,07,5.80
2009,03,07,10,08,5.80
2009,03,07,10,09,5.90
2009,03,07,10,10,5.90
2009,03,07,10,11,5.90
2009,03,07,10,12,5.90
2009,03,07,10,13,6.00
2009,03,07,10,14,6.00
2009,03,07,10,15,6.10
2009,03,07,10,16,6.10
2009,03,07,10,17,6.10
2009,03,07,10,18,6.20
2009,03,07,10,19,6.10
2009,03,07,10,20,6.10
2009,03,07,10,21,6.10
2009,03,07,10,22,6.10
2009,03,07,10,23,6.10
2009,03,07,10,24,6.10
2009,03,07,10,25,6.10
2009,03,07,10,26,6.10
2009,03,07,10,27,6.10
2009,03,07,10,28,6.10
2009,03,07,10,29,6.10
2009,03,07,10,30,6.10
2009,03,07,10,31,6.10
2009,03,07,10,32,6.10
2009,03,07,10,33,6.20
2009,03,07,10,34,6.20
2009,03,07,10,35,6.20
2009,03,07,10,36,6.20
2009,03,07,10,37,6.20
2009,03,07,10,38,6.30
2009,03,07,10,39,6.30
2009,03,07,10,40,6.30
2009,03,07,10,41,6.30
2009,03,07,10,42,6.30
2009,03,07,10,43,6.30
2009,03,07,10,44,6.30
2009,03,07,10,45,6.30
2009,03,07,10,46,6.20
2009,03,07,10,47,6.20
2009,03,07,10,48,6.20
2009,03,07,10,49,6.10
2009,03,07,10,50,6.10
2009,03,07,10,51,6.10
2009,03,07,10,52,6.10
2009,03,07,10,53,6.10
2009,03,07,10,54,6.10
2009,03,07,10,55,6.10
2009,03,07,10,56,6.20
2009,03,07,10,57,6.20
2009,03,07,10,58,6.20
2009,03,07,10,59,6.30
2009,03,07,11,00,6.30
2009,03,07,11,01,6.40
2009,03,07,11,02,6.40
2009,03,07,11,03,6.40
2009,03,07,11,04,6.40
2009,03,07,11,05,6.50
2009,03,07,11,06,6.50
2009,03,07,11,07,6.50
2009,03,07,11,08,6.60
2009,03,07,11,09,6.60
2009,03,07,11,10,6.70
2009,03,07,11,11,6.70
2009,03,07,11,12,6.70
2009,03,07,11,13,6.70
2009,03,07,11,14,6.70
2009,03,07,11,15,6.70
2009,03,07,11,16,6.70
2009,03,07,11,17,6.70
2009,03,07,11,18,6.70
2009,03,07,11,19,6.70
2009,03,07,11,20,6.70
2009,03,07,11,21,6.70
2009,03,07,11,22,6.70
2009,03,07,11,23,6.70
2009,03,07,11,24,6.70
2009,03,07,11,25,6.70
2009,03,07,11,26,6.70
2009,03,07,11,27,6.70
2009,03,07,11,28,6.70
2009,03,07,11,29,6.70
2009,03,07,11,30,6.70
2009,03,07,11,31,6.60
2009,03,07,11,32,6.60
2009,03,07,11,33,6.60
2009,03,07,11,34,6.60
2009,03,07,11,35,6.50
2009,03,07,11,36,6.50
2009,03,07,11,37,6.50
2009,03,07,11,38,6.40
2009,03,07,11,39,6.40
2009,03,07,11,40,6.40
2009,03,07,11,41,6.40
2009,03,07,11,42,6.40
2009,03,07,11,43,6.40
2009,03,07,11,44,6.40
2009,03,07,11,45,6.40
2009,03,07,11,46,6.40
2009,03,07,11,47,6.40
2009,03,07,11,48,6.40
2009,03,07,11,49,6.40
2009,03,07,11,50,6.40
2009,03,07,11,51,6.40
2009,03,07,11,52,6.40
2009,03,07,11,53,6.40
2009,03,07,11,54,6.50
2009,03,07,11,55,6.50
2009,03,07,11,56,6.50
2009,03,07,11,57,6.60
2009,03,07,11,58,6.60
2009,03,07,11,59,6.60
2009,03,07,12,00,6.60
2009,03,07,12,01,6.50
2009,03,07,12,02,6.50
2009,03,07,12,03,6.40
2009,03,07,12,04,6.40
2009,03,07,12,05,6.40
2009,03,07,12,06,6.40
2009,03,07,12,07,6.30
2009,03,07,12,08,6.30
2009,03,07,12,09,6.30
2009,03,07,12,10,6.30
2009,03,07,12,11,6.30
2009,03,07,12,12,6.40
2009,03,07,12,13,6.40
2009,03,07,12,14,6.50
2009,03,07,12,15,6.50
2009,03,07,12,16,6.50
2009,03,07,12,17,6.60
2009,03,07,12,18,6.50
2009,03,07,12,19,6.50
2009,03,07,12,20,6.50
2009,03,07,12,21,6.50
2009,03,07,12,22,6.50
2009,03,07,12,23,6.40
2009,03,07,12,24,6.30
2009,03,07,12,25,6.30
2009,03,07,12,26,6.20
2009,03,07,12,27,6.20
2009,03,07,12,28,6.20
2009,03,07,12,29,6.20
2009,03,07,12,30,6.20
2009,03,07,12,31,6.10
2009,03,07,12,32,6.10
2009,03,07,12,33,6.10
2009,03,07,12,34,6.10
2009,03,07,12,35,6.10
2009,03,07,12,36,6.00
2009,03,07,12,37,5.90
2009,03,07,12,38,5.90
2009,03,07,12,39,5.90
2009,03,07,12,40,5.90
2009,03,07,12,41,5.90
2009,03,07,12,42,5.90
2009,03,07,12,43,5.80
2009,03,07,12,44,5.80
2009,03,07,12,45,5.80
2009,03,07,12,46,5.80
2009,03,07,12,47,5.70
2009,03,07,12,48,5.70
2009,03,07,12,49,5.70
2009,03,07,12,50,5.70
2009,03,07,12,51,5.60
2009,03,07,12,52,5.60
2009,03,07,12,53,5.60
2009,03,07,12,54,5.60
2009,03,07,12,55,5.50
2009,03,07,12,56,5.50
2009,03,07,12,57,5.50
2009,03,07,12,58,5.40
2009,03,07,12,59,5.40
2009,03,07,13,00,5.40
2009,03,07,13,01,5.40
2009,03,07,13,02,5.40
2009,03,07,13,03,5.30
2009,03,07,13,04,5.30
2009,03,07,13,05,5.20
2009,03,07,13,06,5.20
2009,03,07,13,07,5.30
2009,03,07,13,08,5.30
2009,03,07,13,09,5.30
2009,03,07,13,10,5.40
2009,03,07,13,11,5.50
2009,03,07,13,12,5.50
2009,03,07,13,13,5.60
2009,03,07,13,14,5.60
2009,03,07,13,15,5.60
2009,03,07,13,16,5.70
2009,03,07,13,17,5.70
2009,03,07,13,18,5.70
2009,03,07,13,19,5.80
2009,03,07,13,20,5.80
2009,03,07,13,21,5.90
2009,03,07,13,22,6.00
2009,03,07,13,23,6.10
2009,03,07,13,24,6.20
2009,03,07,13,25,6.30
2009,03,07,13,26,6.30
2009,03,07,13,27,6.20
2009,03,07,13,28,6.20
2009,03,07,13,29,6.20
2009,03,07,13,30,6.10
2009,03,07,13,31,6.10
2009,03,07,13,32,6.10
2009,03,07,13,33,6.00
2009,03,07,13,34,5.90
2009,03,07,13,35,5.80
2009,03,07,13,36,5.80
2009,03,07,13,37,5.70
2009,03,07,13,38,5.60
2009,03,07,13,39,5.50
2009,03,07,13,40,5.40
2009,03,07,13,41,5.30
2009,03,07,13,42,5.30
2009,03,07,13,43,5.30
2009,03,07,13,44,5.20
2009,03,07,13,45,5.20
2009,03,07,13,46,5.20
2009,03,07,13,47,5.20
2009,03,07,13,48,5.20
2009,03,07,13,49,5.20
2009,03,07,13,50,5.30
2009,03,07,13,51,5.40
2009,03,07,13,52,5.50
2009,03,07,13,53,5.60
2009,03,07,13,54,5.70
2009,03,07,13,55,5.80
2009,03,07,13,56,5.90
2009,03,07,13,57,5.90
2009,03,07,13,58,6.00
2009,03,07,13,59,6.00
2009,03,07,14,00,6.00
2009,03,07,14,01,6.00
2009,03,07,14,02,5.90
2009,03,07,14,03,6.00
2009,03,07,14,04,6.00
2009,03,07,14,05,6.10
2009,03,07,14,06,6.10
2009,03,07,14,07,6.10
2009,03,07,14,08,6.10
2009,03,07,14,09,6.10
2009,03,07,14,10,6.20
2009,03,07,14,11,6.20
2009,03,07,14,12,6.20
2009,03,07,14,13,6.20
2009,03,07,14,14,6.30
2009,03,07,14,15,6.30
2009,03,07,14,16,6.40
2009,03,07,14,17,6.40
2009,03,07,14,18,6.40
2009,03,07,14,19,6.50
2009,03,07,14,20,6.60
2009,03,07,14,21,6.60
2009,03,07,14,22,6.60
2009,03,07,14,23,6.60
2009,03,07,14,24,6.60
2009,03,07,14,25,6.60
2009,03,07,14,26,6.70
2009,03,07,14,27,6.80
2009,03,07,14,28,7.00
2009,03,07,14,29,7.20
2009,03,07,14,30,7.30
2009,03,07,14,31,7.40
2009,03,07,14,32,7.50
2009,03,07,14,33,7.60
2009,03,07,14,34,7.60
2009,03,07,14,35,7.70
2009,03,07,14,36,7.70
2009,03,07,14,37,7.80
2009,03,07,14,38,7.80
2009,03,07,14,39,7.80
2009,03,07,14,40,7.90
2009,03,07,14,41,7.90
2009,03,07,14,42,7.70
2009,03,07,14,43,7.50
2009,03,07,14,44,7.30
2009,03,07,14,45,7.20
2009,03,07,14,46,6.90
2009,03,07,14,47,6.70
2009,03,07,14,48,6.50
2009,03,07,14,49,6.40
2009,03,07,14,50,6.30
2009,03,07,14,51,6.20
2009,03,07,14,52,6.00
2009,03,07,14,53,5.80
2009,03,07,14,54,5.60
2009,03,07,14,55,5.30
2009,03,07,14,56,5.10
2009,03,07,14,57,4.90
2009,03,07,14,58,4.70
2009,03,07,14,59,4.50
2009,03,07,15,00,4.40
2009,03,07,15,01,4.30
2009,03,07,15,02,4.20
2009,03,07,15,03,4.00
2009,03,07,15,04,3.80
2009,03,07,15,05,3.50
2009,03,07,15,06,3.20
2009,03,07,15,07,3.00
2009,03,07,15,08,2.90
2009,03,07,15,09,2.80
2009,03,07,15,10,2.70
2009,03,07,15,11,2.50
2009,03,07,15,12,2.40
2009,03,07,15,13,2.30
2009,03,07,15,14,2.20
2009,03,07,15,15,2.10
2009,03,07,15,16,2.00
2009,03,07,15,17,1.90
2009,03,07,15,18,1.80
2009,03,07,15,19,1.70
2009,03,07,15,20,1.70
2009,03,07,15,21,1.70
2009,03,07,15,22,1.60
2009,03,07,15,23,1.60
2009,03,07,15,24,1.60
2009,03,07,15,25,1.50
2009,03,07,15,26,1.50
2009,03,07,15,27,1.40
2009,03,07,15,28,1.40
2009,03,07,15,29,1.40
2009,03,07,15,30,1.40
2009,03,07,15,31,1.40
2009,03,07,15,32,1.50
2009,03,07,15,33,1.50
2009,03,07,15,34,1.60
2009,03,07,15,35,1.60
2009,03,07,15,36,1.60
2009,03,07,15,37,1.50
2009,03,07,15,38,1.50
2009,03,07,15,39,1.40
2009,03,07,15,40,1.30
2009,03,07,15,41,1.30
2009,03,07,15,42,1.30
2009,03,07,15,43,1.30
2009,03,07,15,44,1.30
2009,03,07,15,45,1.30
2009,03,07,15,46,1.20
2009,03,07,15,47,1.20
2009,03,07,15,48,1.20
2009,03,07,15,49,1.10
2009,03,07,15,50,1.00
2009,03,07,15,51,1.00
2009,03,07,15,52,1.00
2009,03,07,15,53,0.90
2009,03,07,15,54,0.90
2009,03,07,15,55,0.90
2009,03,07,15,56,0.80
2009,03,07,15,57,0.80
2009,03,07,15,58,0.80
2009,03,07,15,59,0.80
2009,03,07,16,00,0.80
2009,03,07,16,01,0.80
2009,03,07,16,02,0.70
2009,03,07,16,03,0.70
2009,03,07,16,04,0.80
2009,03,07,16,05,0.80
2009,03,07,16,06,0.80
2009,03,07,16,07,0.80
2009,03,07,16,08,0.80
2009,03,07,16,09,0.80
2009,03,07,16,10,0.80
2009,03,07,16,11,0.80
2009,03,07,16,12,0.80
2009,03,07,16,13,0.90
2009,03,07,16,14,0.90
2009,03,07,16,15,0.90
2009,03,07,16,16,0.90
2009,03,07,16,17,1.00
2009,03,07,16,18,1.00
2009,03,07,16,19,1.10
2009,03,07,16,20,1.10
2009,03,07,16,21,1.10
2009,03,07,16,22,1.10
2009,03,07,16,23,1.20
2009,03,07,16,24,1.20
2009,03,07,16,25,1.20
2009,03,07,16,26,1.20
2009,03,07,16,27,1.20
2009,03,07,16,28,1.20
2009,03,07,16,29,1.30
2009,03,07,16,30,1.30
2009,03,07,16,31,1.30
2009,03,07,16,32,1.30
2009,03,07,16,33,1.30
2009,03,07,16,34,1.30
2009,03,07,16,35,1.30
2009,03,07,16,36,1.30
2009,03,07,16,37,1.30
2009,03,07,16,38,1.30
2009,03,07,16,39,1.30
2009,03,07,16,40,1.30
2009,03,07,16,41,1.30
2009,03,07,16,42,1.30
2009,03,07,16,43,1.30
2009,03,07,16,44,1.30
2009,03,07,16,45,1.30
2009,03,07,16,46,1.30
2009,03,07,16,47,1.40
2009,03,07,16,48,1.40
2009,03,07,16,49,1.40
2009,03,07,16,50,1.40
2009,03,07,16,51,1.40
2009,03,07,16,52,1.40
2009,03,07,16,53,1.40
2009,03,07,16,54,1.40
2009,03,07,16,55,1.40
2009,03,07,16,56,1.50
2009,03,07,16,57,1.50
2009,03,07,16,58,1.50
2009,03,07,16,59,1.50
2009,03,07,17,00,1.50
2009,03,07,17,01,1.50
2009,03,07,17,02,1.50
2009,03,07,17,03,1.50
2009,03,07,17,04,1.50
2009,03,07,17,05,1.60
2009,03,07,17,06,1.60
2009,03,07,17,07,1.60
2009,03,07,17,08,1.60
2009,03,07,17,09,1.60
2009,03,07,17,10,1.60
2009,03,07,17,11,1.60
2009,03,07,17,12,1.60
2009,03,07,17,13,1.60
2009,03,07,17,14,1.70
2009,03,07,17,15,1.70
2009,03,07,17,16,1.70
2009,03,07,17,17,1.70
2009,03,07,17,18,1.60
2009,03,07,17,19,1.60
2009,03,07,17,20,1.60
2009,03,07,17,21,1.60
2009,03,07,17,22,1.60
2009,03,07,17,23,1.60
2009,03,07,17,24,1.60
2009,03,07,17,25,1.60
2009,03,07,17,26,1.60
2009,03,07,17,27,1.60
2009,03,07,17,28,1.70
2009,03,07,17,29,1.70
2009,03,07,17,30,1.70
2009,03,07,17,31,1.70
2009,03,07,17,32,1.70
2009,03,07,17,33,1.70
2009,03,07,17,34,1.70
2009,03,07,17,35,1.70
2009,03,07,17,36,1.70
2009,03,07,17,37,1.70
2009,03,07,17,38,1.70
2009,03,07,17,39,1.70
2009,03,07,17,40,1.70
2009,03,07,17,41,1.70
2009,03,07,17,42,1.70
2009,03,07,17,43,1.60
2009,03,07,17,44,1.60
2009,03,07,17,45,1.50
2009,03,07,17,46,1.50
2009,03,07,17,47,1.40
2009,03,07,17,48,1.30
2009,03,07,17,49,1.30
2009,03,07,17,50,1.30
2009,03,07,17,51,1.30
2009,03,07,17,52,1.30
2009,03,07,17,53,1.30
2009,03,07,17,54,1.30
2009,03,07,17,55,1.30
2009,03,07,17,56,1.20
2009,03,07,17,57,1.20
2009,03,07,17,58,1.10
2009,03,07,17,59,1.10
2009,03,07,18,00,1.00
2009,03,07,18,01,1.00
2009,03,07,18,02,0.90
2009,03,07,18,03,0.90
2009,03,07,18,04,0.90
2009,03,07,18,05,0.80
2009,03,07,18,06,0.80